Regional Weather Roundup
Issued by NWS Raleigh/Durham, NC

Home | Current Version | Previous Version | Text Only | Print | Product List | Glossary On
Versions: 1 2 3 4 5 6 7 8 9 10 11 12 13 14 15 16 17 18 19 20 21 22 23 24 25 26 27 28 29 30 31 32 33 34 35 36 37 38 39 40 41 42 43 44 45 46 47 48 49 50
000
ASUS42 KRAH 042010
RWRRAH
NORTH CAROLINA WEATHER ROUNDUP
NATIONAL WEATHER SERVICE RALEIGH NC
400 PM EDT SAT JUL 04 2015

NOTE: "FAIR" INDICATES FEW OR NO CLOUDS BELOW 12,000 FEET WITH NO
SIGNIFICANT WEATHER AND/OR OBSTRUCTIONS TO VISIBILITY.

NCZ001-053-055-056-065-067-042100-
WESTERN NORTH CAROLINA

CITY           SKY/WX    TMP DP  RH WIND       PRES   REMARKS
ASHEVILLE      PTSUNNY   75  65  70 N13       30.06F
JEFFERSON      PTSUNNY   74  58  56 W8        30.09S
HICKORY        MOSUNNY   85  65  51 SW10      29.99F
RUTHERFORDTON  NOT AVBL
MOUNT AIRY     PTSUNNY   85  69  58 W7        29.99F
$$

NCZ021-022-025-041-071-084-088-042100-
CENTRAL NORTH CAROLINA

CITY           SKY/WX    TMP DP  RH WIND       PRES   REMARKS
CHARLOTTE      PTSUNNY   86  66  51 SW13G22   30.00F
GREENSBORO     MOSUNNY   85  66  53 SW10      29.96F
WINSTON-SALEM  MOSUNNY   83  66  56 VRB6      29.98F
RALEIGH-DURHAM PTSUNNY   85  72  65 W13       29.97F
FORT BRAGG     PTSUNNY   88  66  48 SW14G22   29.97F
FAYETTEVILLE   PTSUNNY   89  65  44 W21G29    29.99F
$$

NCZ011-015-027-028-043-044-047-080-103-042100-
NORTHEASTERN NORTH CAROLINA

CITY           SKY/WX    TMP DP  RH WIND       PRES   REMARKS
ROANOKE RAPIDS FAIR      84  72  65 SW12      29.94F
ROCKY MT-WILSO CLOUDY    80  74  81 W8        29.97F
GREENVILLE     CLOUDY    77  73  88 CALM      30.00F
WASHINGTON     HVY RAIN  72  69  91 NW7G23    30.00R
ELIZABETH CITY NOT AVBL
MANTEO         HVY RAIN  75  70  86 W22G39    30.00R
CAPE HATTERAS  SUNNY     82  73  74 SW20G28   29.98F
$$

NCZ078-087-090-091-093-098-101-042100-
SOUTHEASTERN NORTH CAROLINA

CITY           SKY/WX    TMP DP  RH WIND       PRES   REMARKS
LUMBERTON      MOSUNNY   88  68  51 SW12G23   30.00F
GOLDSBORO      PTSUNNY   88  69  52 SW13G22   29.95F
KINSTON        PTSUNNY   73  68  83 SW12G22   29.98S
KENANSVILLE    MOSUNNY   88  65  47 SW13G23   30.00F
NEW BERN       SUNNY     90  67  46 W21       29.99F
CHERRY POINT   SUNNY     93  65  39 W18G31    30.00R HX  95
BEAUFORT       SUNNY     84  75  74 SW25G33   30.01S
JACKSONVILLE   SUNNY     90  67  46 W12       30.00S
WILMINGTON     MOSUNNY   92  68  45 W18G24    30.02F HX  96
$$




USA.gov is the U.S. government's official web portal to all federal, state and local government web resources and services.